Helicity
76 81 87 86 93 92 90 78 84 102 101 96 118 121 116 114 120 77 93 99 78 21 129 181 171 159 176 144 162 193 242 190 146 105 108 136 145 181 187 179 204 175 106 78 187
72 68 74 72 75 85 87 80 82 93 94 106 96 110 136 145 104 76 124 49 47 107 224 206 184 212 217 185 195 214 199 122 119 145 116 136 154 166 191 188 185 167 184 185 171
67 78 77 74 78 89 92 81 78 73 70 76 102 99 106 165 61 42 100 72 28 104 179 172 247 249 213 222 226 199 151 137 151 153 166 172 180 188 161 165 117 99 121 172 172
83 73 69 80 71 64 59 54 57 69 74 76 83 127 131 158 127 150 89 74 -52 55 158 168 236 248 222 219 216 186 138 119 142 145 140 155 160 204 159 145 147 100 86 165 132
77 77 70 60 53 56 58 55 48 48 34 31 37 64 152 170 275 158 134 113 81 163 166 154 219 249 210 161 172 169 164 116 113 136 109 97 119 122 149 131 145 124 124 94 95
76 70 59 48 46 51 52 42 35 15 28 20 24 62 143 145 147 94 148 176 166 170 116 162 160 165 160 155 157 103 111 127 107 106 108 91 90 94 114 128 146 90 52 91 111
66 56 46 48 56 55 49 35 31 -1 41 28 26 106 135 206 183 96 204 97 81 112 114 101 105 170 142 175 107 123 114 155 128 113 112 74 112 94 80 120 107 102 102 109 93
45 47 54 54 54 50 43 40 22 7 48 70 71 150 218 219 45 41 144 143 47 98 104 86 108 143 154 156 187 153 154 134 118 119 119 129 79 126 70 101 110 103 107 118 147
51 53 53 41 41 48 47 44 26 -0 92 126 155 178 125 49 74 153 153 83 130 126 113 106 132 155 202 197 209 211 147 127 144 81 123 126 78 51 103 108 101 105 113 162 201
53 51 48 37 43 47 46 40 -35 75 182 73 92 108 67 86 71 80 176 99 184 190 216 195 216 212 242 243 163 172 165 128 91 104 120 133 133 124 129 104 136 163 178 184 199
52 56 48 45 41 34 55 -94 -101 -10 105 109 85 112 26 -19 -15 69 59 141 182 227 209 205 208 163 209 201 164 98 110 112 98 114 118 99 107 86 125 156 148 141 169 213 251
48 51 54 42 28 31 57 6 102 99 115 202 146 137 184 -7 -90 48 47 117 142 189 217 199 110 127 114 127 143 146 129 136 158 139 113 98 98 103 117 120 140 115 141 179 241
40 53 58 53 13 91 49 46 73 78 118 58 77 28 -0 26 16 -12 123 188 154 149 137 123 86 74 137 142 134 132 114 113 105 128 115 104 119 129 107 114 117 159 159 213 226
42 57 69 62 93 81 33 60 55 57 82 42 -8 -0 -3 22 -0 55 86 108 132 93 121 99 -3 96 148 109 97 126 80 84 97 113 100 123 92 109 101 111 96 123 176 212 239
52 60 51 65 120 101 96 56 38 52 86 6 1 13 -14 44 14 48 53 87 116 107 123 112 120 104 127 100 112 110 115 94 120 146 104 115 94 44 122 115 87 81 97 127 163
47 64 51 107 104 88 74 53 57 68 70 5 25 1 16 17 25 32 69 65 186 123 122 91 69 103 105 147 109 81 160 189 147 104 100 74 92 48 71 62 95 109 104 100 124
45 56 81 105 107 92 58 34 99 136 22 4 23 30 22 22 43 41 65 95 131 164 114 131 126 119 98 198 207 148 173 160 145 137 82 79 101 78 57 75 100 119 100 100 113
24 52 81 86 83 64 61 95 149 25 11 50 59 13 16 5 13 18 62 98 128 141 106 111 121 159 147 120 109 143 137 110 85 90 86 75 67 69 53 78 71 99 98 82 77
41 93 84 74 75 48 77 121 81 31 23 26 16 27 30 20 14 10 16 67 32 42 73 133 144 142 168 136 111 157 134 97 66 58 81 69 73 54 66 108 154 158 100 65 83
119 110 77 84 38 55 87 74 27 21 22 34 18 21 46 70 27 9 22 31 57 69 62 67 164 112 179 156 169 111 98 107 126 61 77 68 57 43 56 63 83 79 90 90 83
106 119 58 60 48 45 77 45 50 46 25 26 39 9 2 47 17 11 67 44 68 56 51 123 87 141 137 133 95 136 129 130 101 88 49 54 47 32 46 36 55 53 84 86 74
98 130 57 65 107 66 74 3 61 56 39 11 4 -2 7 71 11 -7 65 90 122 80 105 112 87 184 126 115 113 100 83 100 80 67 88 43 55 56 76 31 58 59 78 76 45
106 79 38 72 132 89 59 -10 29 37 41 1 -8 -6 -1 47 9 -10 22 84 129 122 100 138 119 147 132 106 133 86 107 116 104 75 51 66 53 64 87 94 64 74 73 58 28
97 109 56 55 46 89 20 -24 29 56 34 -3 -11 -8 20 7 -2 11 4 17 80 113 90 45 49 55 54 43 94 98 121 103 103 74 52 71 67 61 35 29 43 69 66 46 9
98 103 91 113 66 64 38 -28 -7 29 37 3 -9 8 14 8 25 18 12 17 35 70 67 55 60 67 87 78 89 93 94 92 88 89 60 31 50 48 59 50 70 57 41 31 12
136 130 92 78 64 58 18 -8 7 37 18 -12 -17 19 7 14 16 32 17 8 27 56 45 78 48 68 93 74 60 57 44 36 56 64 50 48 8 70 97 86 74 23 19 -13 -56
76 70 82 67 56 70 32 9 59 77 32 -20 -15 -13 -10 20 33 21 11 18 19 24 48 53 60 75 59 84 74 71 29 64 71 84 87 41 88 89 61 42 7 -38 -56 -67 -58
Wind_Speed
79 80 82 83 84 84 85 85 87 88 87 87 87 87 87 89 90 83 81 55 42 33 30 33 32 33 33 39 38 39 64 70 68 61 59 48 49 44 40 40 44 42 38 37 10
81 83 84 84 85 87 88 87 88 88 89 89 87 86 87 89 96 96 72 59 48 42 38 37 40 35 45 46 46 55 69 69 57 54 55 48 48 46 46 45 48 46 38 17 14
82 83 83 85 86 86 87 87 88 89 89 89 87 84 81 84 90 88 55 52 45 37 34 35 34 41 52 48 51 55 74 59 52 47 45 49 50 48 50 57 51 51 38 23 20
85 80 80 83 88 90 91 90 90 90 89 83 79 79 75 66 86 45 46 48 28 35 37 38 44 51 57 60 54 67 64 58 54 49 50 57 51 57 55 53 45 43 30 27 28
86 82 82 86 89 91 93 91 89 90 86 81 77 70 67 64 62 63 70 58 36 35 41 46 49 51 61 59 57 70 61 55 58 60 57 52 57 62 61 50 43 35 34 35 34
85 87 86 90 92 93 93 92 90 90 86 80 69 60 62 75 56 58 54 49 41 40 47 48 52 47 55 58 58 54 64 66 61 59 55 60 62 58 58 51 51 46 46 42 40
85 89 91 93 95 96 97 95 94 93 91 83 63 52 63 58 59 62 64 48 36 39 47 45 42 44 49 54 53 55 61 57 61 59 63 53 74 74 60 54 57 54 48 45 42
89 90 94 94 98 99 101 102 103 86 88 84 54 43 68 55 54 66 63 54 38 39 45 41 39 46 46 42 46 57 61 75 61 59 57 54 87 57 44 53 59 54 52 49 45
88 92 92 97 100 100 106 105 96 84 75 61 47 43 66 45 45 55 60 58 39 39 42 38 44 53 49 54 62 60 76 75 71 56 56 62 74 59 56 57 52 51 49 47 44
90 92 93 98 99 104 104 100 82 65 62 47 42 46 44 46 53 62 54 42 36 26 35 42 46 56 58 61 81 71 67 67 70 51 52 65 73 53 44 40 42 39 37 38 40
86 91 95 95 97 98 92 78 87 65 78 65 53 53 65 55 59 48 39 35 33 28 42 47 57 66 63 58 59 56 61 67 60 53 57 66 69 59 46 41 37 35 36 36 35
85 92 95 96 98 78 76 73 74 60 82 55 35 26 22 25 45 56 28 34 38 40 35 47 70 59 51 55 59 62 68 65 57 53 52 57 65 60 55 54 51 48 42 39 36
89 93 93 92 83 69 72 68 69 63 53 49 43 44 50 22 5 32 35 42 39 35 37 46 43 53 50 51 56 61 69 67 66 49 46 53 67 61 50 50 51 50 45 41 38
90 90 88 91 63 71 70 67 65 48 45 43 53 43 52 40 26 23 31 34 40 33 33 48 51 31 44 56 50 59 48 56 61 57 67 49 74 57 55 58 55 52 47 44 40
88 88 90 73 59 69 68 64 53 38 50 53 47 43 66 27 38 32 50 46 39 26 33 43 45 52 50 49 38 46 39 43 44 51 56 55 63 58 52 57 51 43 39 36 38
88 86 86 60 59 57 62 54 42 45 43 44 52 64 55 41 34 32 32 29 43 34 36 40 33 38 39 33 31 26 30 32 38 45 65 59 58 59 52 51 46 40 38 35 34
86 85 68 53 64 64 56 47 44 44 42 50 58 60 48 46 34 32 32 36 38 36 43 43 47 38 29 29 27 31 30 43 51 55 61 44 51 61 45 41 40 33 29 27 30
89 78 57 50 56 60 53 44 43 36 36 45 45 54 44 47 36 36 27 36 45 36 38 36 43 42 37 34 39 40 39 43 52 51 51 42 53 49 45 45 38 22 22 24 30
84 65 54 54 58 51 52 48 40 38 42 47 59 39 45 44 40 37 31 36 42 46 42 42 42 39 35 31 31 37 44 36 38 42 47 44 45 45 37 33 25 19 23 29 37
76 58 54 60 50 52 51 41 39 34 42 39 42 41 45 38 43 43 34 35 38 42 43 37 40 38 36 30 34 37 27 40 41 45 50 45 45 45 35 29 22 24 28 36 40
67 58 54 63 45 58 55 40 39 34 41 32 36 43 42 43 37 33 29 31 39 41 39 28 36 43 34 42 36 34 42 38 34 37 38 41 41 37 44 27 21 27 35 40 46
64 61 57 60 61 55 55 42 36 41 44 35 43 40 38 35 31 25 28 30 31 35 34 29 32 40 43 39 41 40 38 36 40 42 43 42 48 40 38 23 22 28 37 46 50
65 51 49 56 63 61 48 40 39 42 40 44 43 40 41 38 33 29 28 30 24 23 26 28 38 35 40 42 43 45 38 35 34 36 43 43 44 36 33 27 22 31 43 50 54
57 62 52 53 52 55 49 40 52 49 39 44 40 41 42 38 35 34 30 28 29 24 30 33 28 38 44 42 36 41 38 36 39 47 47 52 53 42 38 36 31 42 51 53 56
53 53 50 62 57 53 48 34 51 51 43 40 38 40 40 39 39 35 33 30 29 31 31 32 33 31 32 34 34 34 35 36 42 45 55 53 56 55 41 33 36 55 50 55 61
52 52 47 51 49 50 47 36 47 54 46 44 43 46 42 37 36 41 36 35 34 33 32 34 36 34 37 35 39 43 46 46 47 50 63 67 78 46 47 46 50 51 52 63 66
42 40 45 47 49 48 41 44 53 50 43 44 46 49 45 40 39 36 33 32 32 34 33 33 30 34 42 40 41 50 49 45 44 43 48 67 49 40 52 56 63 63 61 61 62
Wind_Direction
348 346 344 342 340 338 334 332 328 326 323 321 319 316 314 311 307 303 294 300 304 290 298 297 290 282 282 279 282 279 266 264 265 266 270 275 270 273 276 269 270 277 282 284 240
347 345 345 343 340 336 333 332 329 327 323 321 319 317 315 312 303 294 297 293 287 292 276 275 274 274 271 273 273 266 264 265 272 271 269 274 271 268 269 269 270 272 284 270 249
351 350 348 345 342 340 338 334 331 327 324 321 319 318 317 315 302 297 304 296 280 271 267 273 275 270 267 270 267 267 265 270 274 276 275 272 271 274 268 266 270 269 269 256 253
350 354 352 349 344 340 337 334 332 330 327 325 322 317 318 316 298 318 317 307 278 277 265 266 267 264 266 263 265 266 268 270 272 276 276 271 274 270 271 274 281 277 266 257 255
351 354 352 346 343 340 337 336 334 332 329 325 322 320 318 305 297 303 300 302 283 270 258 260 260 262 262 266 267 263 269 271 271 274 275 276 271 269 270 275 285 278 266 261 259
353 350 350 345 342 339 338 337 335 330 328 326 323 321 313 300 312 309 305 288 276 267 261 259 265 260 267 265 261 272 266 267 273 273 275 270 272 271 272 273 274 271 266 264 262
353 349 347 344 342 339 337 336 333 328 327 324 322 317 306 295 308 298 296 294 277 268 262 260 262 259 264 269 269 270 269 270 269 269 270 275 268 267 273 273 270 269 267 266 265
350 348 346 345 342 340 337 333 329 330 326 324 324 318 308 320 309 287 282 282 277 269 266 268 264 264 265 270 273 265 267 263 270 268 272 271 263 276 280 272 269 269 267 265 264
352 349 348 345 342 341 336 333 332 331 330 336 334 321 315 330 318 300 273 268 266 267 265 268 260 256 259 258 261 264 261 262 267 272 270 264 269 278 278 270 270 273 268 264 264
352 351 350 346 345 341 339 337 340 343 345 347 340 327 326 322 321 306 282 249 257 256 259 257 257 251 252 249 253 259 263 266 265 274 269 264 265 276 283 282 273 269 270 266 266
355 353 350 350 347 345 347 351 348 344 337 327 318 312 309 309 319 310 284 236 248 250 253 254 250 246 249 253 258 267 266 265 271 274 270 266 265 267 273 278 274 272 270 269 269
355 352 351 350 347 353 356 358 353 345 337 339 331 319 269 297 312 283 276 238 241 252 255 256 251 254 256 256 258 261 262 265 272 276 271 271 268 268 269 273 275 272 270 266 267
353 352 352 352 352 359 358 358 355 354 349 355 1 355 341 8 212 291 268 250 242 250 253 253 264 254 250 254 257 262 261 262 264 275 275 274 268 268 273 274 275 276 272 268 263
352 353 354 352 0 357 358 356 356 5 0 6 358 352 341 349 347 273 261 246 251 246 250 256 252 262 250 256 260 261 267 264 262 264 263 275 263 271 272 272 275 274 270 265 263
353 354 354 359 358 358 356 358 4 25 2 1 3 358 315 1 341 289 244 253 251 250 252 257 258 257 257 263 257 264 269 267 267 263 268 269 270 272 275 271 272 272 271 267 267
353 355 355 5 3 2 358 3 19 16 11 15 0 319 326 325 328 283 258 277 255 252 258 258 272 273 261 267 253 261 270 272 271 269 264 266 266 272 274 276 276 272 270 269 271
354 355 1 6 1 1 5 13 11 13 13 0 348 322 337 325 317 300 271 253 249 250 253 256 256 271 263 256 258 260 259 264 263 263 264 276 271 269 280 287 284 270 270 273 277
353 357 8 10 6 5 12 15 10 13 17 10 10 333 354 340 334 305 283 264 250 254 252 251 253 254 264 259 255 254 256 263 263 265 270 277 274 280 286 283 284 276 273 278 281
356 4 13 12 6 16 16 17 17 18 5 2 346 9 353 333 321 297 287 271 256 251 254 249 254 256 266 263 257 254 253 268 273 278 277 279 285 288 293 288 278 274 279 282 289
360 7 12 10 16 19 18 18 17 19 9 15 9 354 338 282 306 297 282 285 264 253 253 258 247 257 256 263 265 259 261 263 268 271 271 280 281 279 286 281 280 280 282 288 292
6 9 14 11 24 19 15 14 9 19 12 25 19 325 284 297 284 291 283 299 262 250 255 253 259 248 252 253 250 255 258 266 270 272 276 280 282 293 282 285 282 283 286 290 295
9 6 12 14 13 17 12 14 12 7 3 16 342 282 268 263 296 275 284 287 270 253 249 262 260 243 248 259 258 262 261 263 264 268 271 281 280 302 300 302 294 292 293 297 302
6 10 17 21 10 9 13 19 17 360 4 349 312 292 283 268 270 295 278 287 294 273 253 257 255 248 253 260 260 258 263 266 272 279 275 280 287 313 314 315 309 302 301 302 304
10 6 13 19 18 13 10 16 2 343 352 305 285 300 289 273 282 281 281 278 291 276 252 254 268 257 252 259 260 258 262 265 270 271 277 278 283 303 311 309 309 305 304 303 304
13 9 12 3 9 9 11 15 357 339 330 292 296 305 294 274 272 278 282 273 264 277 271 267 265 267 263 263 265 267 266 269 271 278 275 290 289 297 311 310 309 303 307 303 299
9 8 10 2 8 9 12 11 354 310 309 295 302 296 302 287 284 271 283 288 277 278 277 274 264 267 264 270 267 266 265 270 277 283 279 283 277 306 307 307 304 305 302 287 274
15 16 9 4 8 9 12 359 306 286 273 273 302 301 296 300 297 302 313 308 297 287 282 280 277 273 262 269 272 266 271 278 288 297 299 279 307 314 304 299 282 265 261 264 274